| time (UTC) | temp C | wind direction | speed KPH | gust KPH | rain 1hr cm | rain 24hr cm | rain mn cm | humidity % | barometer mb |
| 20260902113443 | 23 | 78 | 0.0 | 0.0 | 0.00 | 0.00 | 0.00 | 89 | 1017.8 |
| 20260902113157 | 23 | 78 | 0.0 | 0.0 | 0.00 | 0.00 | 0.00 | 89 | 1017.9 |
| 20260902112439 | 23 | 78 | 0.0 | 0.0 | 0.00 | 0.00 | 0.00 | 89 | 1017.9 |
| 20260902111939 | 23 | 78 | 0.0 | 0.0 | 0.00 | 0.00 | 0.00 | 89 | 1017.9 |
| 20260902111703 | 23 | 77 | 0.0 | 0.0 | 0.00 | 0.00 | 0.00 | 88 | 1017.9 |
| 20260902110937 | 23 | 78 | 0.0 | 0.0 | 0.00 | 0.00 | 0.00 | 88 | 1017.9 |
| 20260902110438 | 23 | 77 | 0.0 | 0.0 | 0.00 | 0.00 | 0.00 | 88 | 1017.9 |
| 20260902105936 | 23 | 78 | 0.0 | 0.0 | 0.00 | 0.00 | 0.00 | 88 | 1017.9 |
| 20260902105436 | 23 | 78 | 0.0 | 0.0 | 0.00 | 0.00 | 0.00 | 88 | 1017.8 |
| 20260902104936 | 23 | 78 | 0.0 | 0.0 | 0.00 | 0.00 | 0.00 | 88 | 1017.8 |
| 20260902104429 | 23 | 78 | 0.0 | 0.0 | 0.00 | 0.00 | 0.00 | 88 | 1017.8 |
| 20260902103923 | 23 | 78 | 0.0 | 0.0 | 0.00 | 0.00 | 0.00 | 88 | 1017.8 |
| 20260902103417 | 23 | 78 | 0.0 | 0.0 | 0.00 | 0.00 | 0.00 | 87 | 1017.8 |
| 20260902102912 | 23 | 78 | 0.0 | 0.0 | 0.00 | 0.00 | 0.00 | 87 | 1017.7 |
| 20260902102405 | 23 | 78 | 0.0 | 0.0 | 0.00 | 0.00 | 0.00 | 87 | 1017.6 |
| 20260902101900 | 23 | 78 | 0.0 | 0.0 | 0.00 | 0.00 | 0.00 | 87 | 1017.6 |
| 20260902101353 | 23 | 78 | 0.0 | 0.0 | 0.00 | 0.00 | 0.00 | 87 | 1017.6 |
| 20260902100846 | 23 | 78 | 0.0 | 0.0 | 0.00 | 0.00 | 0.00 | 87 | 1017.6 |
| 20260902100341 | 23 | 77 | 0.0 | 0.0 | 0.00 | 0.00 | 0.00 | 87 | 1017.5 |
| 20260902095835 | 23 | 77 | 0.0 | 0.0 | 0.00 | 0.00 | 0.00 | 86 | 1017.5 |
| 20260902095329 | 23 | 78 | 0.0 | 0.0 | 0.00 | 0.00 | 0.00 | 86 | 1017.5 |
| 20260902094823 | 23 | 78 | 0.0 | 0.0 | 0.00 | 0.00 | 0.00 | 86 | 1017.4 |
| 20260902094317 | 23 | 78 | 0.0 | 0.0 | 0.00 | 0.00 | 0.00 | 86 | 1017.4 |
| 20260902093810 | 23 | 77 | 0.0 | 0.0 | 0.00 | 0.00 | 0.00 | 86 | 1017.4 |
| 20260902093304 | 24 | 77 | 0.0 | 0.0 | 0.00 | 0.00 | 0.00 | 86 | 1017.4 |
| 20260902092757 | 24 | 77 | 0.0 | 0.0 | 0.00 | 0.00 | 0.00 | 86 | 1017.4 |
| 20260902092251 | 24 | 78 | 0.0 | 0.0 | 0.00 | 0.00 | 0.00 | 86 | 1017.4 |
| 20260902091745 | 24 | 78 | 0.0 | 0.0 | 0.00 | 0.00 | 0.00 | 86 | 1017.3 |
| 20260902091732 | 24 | 78 | 0.0 | 0.0 | 0.00 | 0.00 | 0.00 | 86 | 1017.2 |
| 20260902090740 | 24 | 78 | 0.0 | 0.0 | 0.00 | 0.00 | 0.00 | 86 | 1017.2 |
| 20260902090240 | 24 | 77 | 0.0 | 0.0 | 0.00 | 0.00 | 0.00 | 86 | 1017.1 |
| 20260902090001 | 24 | 77 | 0.0 | 0.0 | 0.00 | 0.00 | 0.00 | 86 | 1017.1 |
| 20260902085236 | 24 | 78 | 0.0 | 0.0 | 0.00 | 0.00 | 0.00 | 86 | 1017.1 |
| 20260902084954 | 24 | 78 | 0.0 | 1.6 | 0.00 | 0.00 | 0.00 | 86 | 1017.1 |
| 20260902084551 | 24 | 77 | 0.0 | 1.6 | 0.00 | 0.00 | 0.00 | 86 | 1017.1 |
| 20260902084450 | 24 | 78 | 0.0 | 1.6 | 0.00 | 0.00 | 0.00 | 85 | 1017.1 |
| 20260902083455 | 24 | 77 | 0.0 | 1.6 | 0.00 | 0.00 | 0.00 | 85 | 1017.1 |
| 20260902082729 | 24 | 77 | 0.0 | 1.6 | 0.00 | 0.00 | 0.00 | 85 | 1017.2 |
| 20260902082229 | 24 | 78 | 0.0 | 0.0 | 0.00 | 0.00 | 0.00 | 85 | 1017.2 |
| 20260902081946 | 24 | 78 | 0.0 | 1.6 | 0.00 | 0.00 | 0.00 | 85 | 1017.1 |
| 20260902081226 | 24 | 78 | 0.0 | 1.6 | 0.00 | 0.00 | 0.00 | 85 | 1017.1 |
| 20260902080949 | 24 | 77 | 0.0 | 0.0 | 0.00 | 0.00 | 0.00 | 85 | 1017.2 |
| 20260902080225 | 24 | 77 | 0.0 | 0.0 | 0.00 | 0.00 | 0.00 | 84 | 1017.3 |
| 20260902075723 | 24 | 78 | 0.0 | 0.0 | 0.00 | 0.00 | 0.00 | 84 | 1017.3 |
| 20260902075222 | 24 | 77 | 0.0 | 0.0 | 0.00 | 0.00 | 0.00 | 84 | 1017.3 |
| 20260902074944 | 24 | 78 | 0.0 | 1.6 | 0.00 | 0.00 | 0.00 | 84 | 1017.2 |
| 20260902074223 | 24 | 77 | 0.0 | 1.6 | 0.00 | 0.00 | 0.00 | 83 | 1017.2 |
| 20260902073945 | 24 | 77 | 0.0 | 1.6 | 0.00 | 0.00 | 0.00 | 84 | 1017.2 |
| 20260902073217 | 25 | 77 | 0.0 | 1.6 | 0.00 | 0.00 | 0.00 | 83 | 1017.2 |
| 20260902072711 | 25 | 78 | 0.0 | 0.0 | 0.00 | 0.00 | 0.00 | 83 | 1017.2 |
| 20260902072211 | 25 | 77 | 0.0 | 0.0 | 0.00 | 0.00 | 0.00 | 83 | 1017.2 |
| 20260902071712 | 25 | 77 | 0.0 | 1.6 | 0.00 | 0.00 | 0.00 | 83 | 1017.2 |
| 20260902071210 | 25 | 78 | 0.0 | 1.6 | 0.00 | 0.00 | 0.00 | 84 | 1017.1 |
| 20260902070711 | 25 | 77 | 0.0 | 0.0 | 0.00 | 0.00 | 0.00 | 84 | 1017.1 |
| 20260902070700 | 25 | 77 | 0.0 | 1.6 | 0.00 | 0.00 | 0.00 | 83 | 1017.0 |
| 20260902065710 | 25 | 77 | 0.0 | 1.6 | 0.00 | 0.00 | 0.00 | 83 | 1016.9 |
| 20260902065211 | 25 | 78 | 0.0 | 0.0 | 0.00 | 0.00 | 0.00 | 82 | 1016.8 |
| 20260902064710 | 25 | 77 | 0.0 | 1.6 | 0.00 | 0.00 | 0.00 | 81 | 1016.9 |
| 20260902064208 | 25 | 78 | 0.0 | 1.6 | 0.00 | 0.00 | 0.00 | 81 | 1016.8 |
| 20260902063708 | 25 | 78 | 0.0 | 1.6 | 0.00 | 0.00 | 0.00 | 82 | 1016.8 |
| 20260902063427 | 25 | 78 | 0.0 | 3.2 | 0.00 | 0.00 | 0.00 | 82 | 1016.8 |
| 20260902062708 | 25 | 77 | 0.0 | 3.2 | 0.00 | 0.00 | 0.00 | 82 | 1016.7 |
| 20260902062207 | 25 | 78 | 0.0 | 3.2 | 0.00 | 0.00 | 0.00 | 82 | 1016.6 |
| 20260902061707 | 25 | 78 | 1.6 | 3.2 | 0.00 | 0.00 | 0.00 | 83 | 1016.6 |
| 20260902061207 | 25 | 67 | 0.0 | 1.6 | 0.00 | 0.00 | 0.00 | 84 | 1016.5 |
| 20260902060705 | 25 | 67 | 0.0 | 4.8 | 0.00 | 0.00 | 0.00 | 84 | 1016.5 |
| 20260902060208 | 25 | 69 | 0.0 | 4.8 | 0.00 | 0.00 | 0.00 | 83 | 1016.6 |
| 20260902055921 | 25 | 345 | 0.0 | 3.2 | 0.00 | 0.00 | 0.00 | 83 | 1016.5 |
| 20260902055412 | 25 | 165 | 0.0 | 3.2 | 0.00 | 0.00 | 0.00 | 84 | 1016.6 |
| 20260902054646 | 25 | 141 | 0.0 | 3.2 | 0.00 | 0.00 | 0.00 | 84 | 1016.6 |
| 20260902054407 | 25 | 191 | 0.0 | 3.2 | 0.00 | 0.00 | 0.00 | 84 | 1016.6 |
| 20260902053903 | 25 | 236 | 1.6 | 6.4 | 0.00 | 0.00 | 0.00 | 85 | 1016.5 |
| 20260902053128 | 25 | 257 | 1.6 | 6.4 | 0.00 | 0.00 | 0.00 | 85 | 1016.4 |
| 20260902052628 | 25 | 42 | 0.0 | 6.4 | 0.00 | 0.00 | 0.00 | 85 | 1016.4 |
| 20260902052351 | 25 | 250 | 0.0 | 3.2 | 0.00 | 0.00 | 0.00 | 84 | 1016.4 |
| 20260902051626 | 25 | 211 | 0.0 | 6.4 | 0.00 | 0.00 | 0.00 | 84 | 1016.3 |
| 20260902051350 | 25 | 285 | 0.0 | 6.4 | 0.00 | 0.00 | 0.00 | 84 | 1016.3 |
| 20260902050623 | 25 | 231 | 0.0 | 1.6 | 0.00 | 0.00 | 0.00 | 85 | 1016.4 |
| 20260902050347 | 25 | 151 | 0.0 | 0.0 | 0.00 | 0.00 | 0.00 | 85 | 1016.5 |
| 20260902045853 | 25 | 151 | 0.0 | 1.6 | 0.00 | 0.00 | 0.00 | 85 | 1016.5 |
| 20260902045119 | 25 | 151 | 0.0 | 1.6 | 0.00 | 0.00 | 0.00 | 85 | 1016.5 |
| 20260902044618 | 25 | 51 | 0.0 | 1.6 | 0.00 | 0.00 | 0.00 | 86 | 1016.5 |
| 20260902044118 | 25 | 51 | 0.0 | 1.6 | 0.00 | 0.00 | 0.00 | 86 | 1016.4 |
| 20260902043841 | 25 | 15 | 0.0 | 1.6 | 0.00 | 0.00 | 0.00 | 86 | 1016.4 |
| 20260902043336 | 25 | 232 | 0.0 | 1.6 | 0.00 | 0.00 | 0.00 | 86 | 1016.5 |
| 20260902042845 | 26 | 34 | 0.0 | 0.0 | 0.00 | 0.00 | 0.00 | 86 | 1016.5 |
| 20260902042117 | 26 | 32 | 0.0 | 0.0 | 0.00 | 0.00 | 0.00 | 86 | 1016.6 |
| 20260902041616 | 26 | 32 | 0.0 | 0.0 | 0.00 | 0.00 | 0.00 | 86 | 1016.7 |
| 20260902041111 | 26 | 57 | 0.0 | 0.0 | 0.00 | 0.00 | 0.00 | 86 | 1016.6 |
| 20260902041058 | 26 | 57 | 0.0 | 0.0 | 0.00 | 0.00 | 0.00 | 86 | 1016.5 |
| 20260902040112 | 26 | 57 | 0.0 | 0.0 | 0.00 | 0.00 | 0.00 | 86 | 1016.5 |
| 20260902035605 | 26 | 57 | 0.0 | 0.0 | 0.00 | 0.00 | 0.00 | 86 | 1016.4 |
| 20260902035325 | 26 | 57 | 0.0 | 0.0 | 0.00 | 0.00 | 0.00 | 86 | 1016.2 |
| 20260902034553 | 26 | 57 | 0.0 | 0.0 | 0.00 | 0.00 | 0.00 | 86 | 1016.2 |
| 20260902034047 | 26 | 57 | 0.0 | 0.0 | 0.00 | 0.00 | 0.00 | 86 | 1016.1 |
| 20260902033541 | 26 | 57 | 0.0 | 0.0 | 0.00 | 0.00 | 0.00 | 86 | 1016.0 |
| 20260902033300 | 26 | 57 | 0.0 | 0.0 | 0.00 | 0.00 | 0.00 | 86 | 1015.9 |
| 20260902032529 | 26 | 57 | 0.0 | 0.0 | 0.00 | 0.00 | 0.00 | 86 | 1015.9 |
| 20260902032023 | 26 | 57 | 0.0 | 0.0 | 0.00 | 0.00 | 0.00 | 85 | 1015.8 |
| 20260902031517 | 26 | 57 | 0.0 | 0.0 | 0.00 | 0.00 | 0.00 | 85 | 1015.8 |
| 20260902031011 | 26 | 57 | 0.0 | 0.0 | 0.00 | 0.00 | 0.00 | 85 | 1015.8 |
| 20260902030505 | 26 | 57 | 0.0 | 0.0 | 0.00 | 0.00 | 0.00 | 84 | 1015.7 |
| 20260902025959 | 26 | 57 | 0.0 | 0.0 | 0.00 | 0.00 | 0.00 | 84 | 1015.7 |
| 20260902025453 | 26 | 57 | 0.0 | 0.0 | 0.00 | 0.00 | 0.00 | 84 | 1015.9 |
| 20260902024947 | 27 | 57 | 0.0 | 0.0 | 0.00 | 0.00 | 0.00 | 84 | 1016.0 |
| 20260902024441 | 27 | 57 | 0.0 | 0.0 | 0.00 | 0.00 | 0.00 | 84 | 1016.1 |
| 20260902024156 | 27 | 57 | 0.0 | 0.0 | 0.00 | 0.00 | 0.00 | 83 | 1016.2 |
| 20260902023429 | 27 | 57 | 0.0 | 0.0 | 0.00 | 0.00 | 0.00 | 83 | 1016.0 |
| 20260902023148 | 27 | 57 | 0.0 | 0.0 | 0.00 | 0.00 | 0.00 | 83 | 1016.0 |
| 20260902022417 | 27 | 57 | 0.0 | 0.0 | 0.00 | 0.00 | 0.00 | 83 | 1016.0 |
| 20260902021912 | 27 | 57 | 0.0 | 0.0 | 0.00 | 0.00 | 0.00 | 83 | 1015.9 |
| 20260902021404 | 27 | 57 | 0.0 | 0.0 | 0.00 | 0.00 | 0.00 | 83 | 1015.9 |
| 20260902020905 | 27 | 57 | 0.0 | 0.0 | 0.00 | 0.00 | 0.00 | 83 | 1015.7 |
| 20260902020402 | 27 | 57 | 0.0 | 0.0 | 0.00 | 0.00 | 0.00 | 83 | 1015.7 |
| 20260902015901 | 27 | 57 | 0.0 | 0.0 | 0.00 | 0.00 | 0.00 | 82 | 1015.7 |
| 20260902015403 | 27 | 57 | 0.0 | 0.0 | 0.00 | 0.00 | 0.00 | 82 | 1015.7 |
| 20260902014900 | 27 | 57 | 0.0 | 0.0 | 0.00 | 0.00 | 0.00 | 82 | 1015.7 |
| 20260902014401 | 28 | 57 | 0.0 | 0.0 | 0.00 | 0.00 | 0.00 | 82 | 1015.6 |
| 20260902013859 | 28 | 57 | 0.0 | 0.0 | 0.00 | 0.00 | 0.00 | 81 | 1015.5 |
| 20260902013400 | 28 | 57 | 0.0 | 0.0 | 0.00 | 0.00 | 0.00 | 81 | 1015.5 |
| 20260902012857 | 28 | 57 | 0.0 | 0.0 | 0.00 | 0.00 | 0.00 | 81 | 1015.4 |
| 20260902012359 | 28 | 57 | 0.0 | 0.0 | 0.00 | 0.00 | 0.00 | 80 | 1015.2 |
| 20260902011900 | 28 | 57 | 0.0 | 0.0 | 0.00 | 0.00 | 0.00 | 80 | 1015.2 |
| 20260902011359 | 28 | 57 | 0.0 | 0.0 | 0.00 | 0.00 | 0.00 | 80 | 1015.1 |
| 20260902010858 | 28 | 57 | 0.0 | 0.0 | 0.00 | 0.00 | 0.00 | 80 | 1015.1 |
| 20260902010358 | 28 | 57 | 0.0 | 0.0 | 0.00 | 0.00 | 0.00 | 80 | 1015.0 |
| 20260902005859 | 28 | 57 | 0.0 | 0.0 | 0.00 | 0.00 | 0.00 | 80 | 1015.0 |
| 20260902005358 | 28 | 57 | 0.0 | 0.0 | 0.00 | 0.00 | 0.00 | 79 | 1015.0 |
| 20260902004853 | 29 | 57 | 0.0 | 0.0 | 0.00 | 0.00 | 0.00 | 79 | 1014.9 |
| 20260902004843 | 29 | 57 | 0.0 | 0.0 | 0.00 | 0.00 | 0.00 | 79 | 1014.8 |
| 20260902003852 | 29 | 57 | 0.0 | 1.6 | 0.00 | 0.00 | 0.00 | 79 | 1014.6 |
| 20260902003352 | 29 | 57 | 0.0 | 1.6 | 0.00 | 0.00 | 0.00 | 78 | 1014.5 |
| 20260902003113 | 30 | 181 | 0.0 | 0.0 | 0.00 | 0.00 | 0.00 | 78 | 1014.4 |
| 20260902002352 | 30 | 181 | 0.0 | 0.0 | 0.00 | 0.00 | 0.00 | 77 | 1014.3 |
| 20260902001851 | 30 | 181 | 0.0 | 0.0 | 0.00 | 0.00 | 0.00 | 77 | 1014.3 |
| 20260902001353 | 30 | 181 | 0.0 | 0.0 | 0.00 | 0.00 | 0.00 | 77 | 1014.3 |
| 20260902000854 | 30 | 181 | 0.0 | 0.0 | 0.00 | 0.00 | 0.00 | 76 | 1014.2 |
| 20260902000349 | 30 | 181 | 0.0 | 0.0 | 0.00 | 0.00 | 0.00 | 76 | 1014.3 |
| 20260901235848 | 30 | 181 | 0.0 | 0.0 | 0.00 | 0.00 | 0.00 | 76 | 1014.2 |
| 20260901235348 | 30 | 181 | 0.0 | 0.0 | 0.00 | 0.00 | 0.00 | 76 | 1014.2 |
| 20260901234849 | 30 | 181 | 0.0 | 0.0 | 0.00 | 0.00 | 0.00 | 76 | 1014.2 |
| 20260901234348 | 31 | 181 | 0.0 | 0.0 | 0.00 | 0.00 | 0.00 | 75 | 1014.3 |
| 20260901233849 | 31 | 181 | 0.0 | 0.0 | 0.00 | 0.00 | 0.00 | 75 | 1014.2 |
| 20260901233349 | 31 | 181 | 0.0 | 1.6 | 0.00 | 0.00 | 0.00 | 75 | 1014.3 |
| 20260901232850 | 31 | 181 | 0.0 | 1.6 | 0.00 | 0.00 | 0.00 | 75 | 1014.3 |
| 20260901232349 | 31 | 180 | 0.0 | 0.0 | 0.00 | 0.00 | 0.00 | 74 | 1014.3 |
| 20260901231842 | 31 | 180 | 0.0 | 0.0 | 0.00 | 0.00 | 0.00 | 74 | 1014.3 |
| 20260901231335 | 31 | 180 | 0.0 | 0.0 | 0.00 | 0.00 | 0.00 | 74 | 1014.4 |
| 20260901230829 | 31 | 180 | 0.0 | 0.0 | 0.00 | 0.00 | 0.00 | 73 | 1014.4 |
| 20260901230324 | 31 | 180 | 0.0 | 1.6 | 0.00 | 0.00 | 0.00 | 73 | 1014.4 |
| 20260901225818 | 31 | 180 | 0.0 | 1.6 | 0.00 | 0.00 | 0.00 | 73 | 1014.4 |
| 20260901225312 | 32 | 180 | 0.0 | 0.0 | 0.00 | 0.00 | 0.00 | 72 | 1014.4 |
| 20260901224812 | 32 | 180 | 0.0 | 0.0 | 0.00 | 0.00 | 0.00 | 72 | 1014.5 |
| 20260901224310 | 32 | 180 | 0.0 | 0.0 | 0.00 | 0.00 | 0.00 | 71 | 1014.6 |
| 20260901223809 | 32 | 180 | 0.0 | 1.6 | 0.00 | 0.00 | 0.00 | 71 | 1014.5 |
| 20260901223306 | 31 | 180 | 0.0 | 3.2 | 0.00 | 0.00 | 0.00 | 72 | 1014.6 |
| 20260901222804 | 31 | 180 | 0.0 | 3.2 | 0.00 | 0.00 | 0.00 | 73 | 1014.6 |
| 20260901222301 | 31 | 241 | 0.0 | 3.2 | 0.00 | 0.00 | 0.00 | 69 | 1014.7 |
| 20260901221803 | 32 | 213 | 0.0 | 3.2 | 0.00 | 0.00 | 0.00 | 72 | 1014.7 |
| 20260901221300 | 32 | 227 | 0.0 | 3.2 | 0.00 | 0.00 | 0.00 | 71 | 1014.7 |
| 20260901220758 | 31 | 204 | 0.0 | 3.2 | 0.00 | 0.00 | 0.00 | 71 | 1014.8 |
| 20260901220258 | 32 | 277 | 0.0 | 3.2 | 0.00 | 0.00 | 0.00 | 70 | 1014.9 |
| 20260901215757 | 32 | 213 | 0.0 | 1.6 | 0.00 | 0.00 | 0.00 | 69 | 1014.8 |
| 20260901215519 | 32 | 213 | 0.0 | 3.2 | 0.00 | 0.00 | 0.00 | 68 | 1014.8 |
| 20260901214755 | 32 | 246 | 0.0 | 3.2 | 0.00 | 0.00 | 0.00 | 64 | 1014.8 |
| 20260901214254 | 32 | 291 | 0.0 | 3.2 | 0.00 | 0.00 | 0.00 | 63 | 1014.9 |
| 20260901213754 | 32 | 254 | 0.0 | 3.2 | 0.00 | 0.00 | 0.00 | 67 | 1014.9 |
| 20260901213253 | 32 | 248 | 0.0 | 4.8 | 0.00 | 0.00 | 0.00 | 62 | 1014.9 |
| 20260901213016 | 33 | 177 | 0.0 | 4.8 | 0.00 | 0.00 | 0.00 | 64 | 1014.9 |
| 20260901212516 | 33 | 163 | 0.0 | 3.2 | 0.00 | 0.00 | 0.00 | 61 | 1014.8 |
| 20260901212018 | 33 | 324 | 1.6 | 4.8 | 0.00 | 0.00 | 0.00 | 59 | 1014.8 |
| 20260901211252 | 33 | 266 | 0.0 | 4.8 | 0.00 | 0.00 | 0.00 | 61 | 1014.7 |
| 20260901210745 | 33 | 192 | 1.6 | 4.8 | 0.00 | 0.00 | 0.00 | 62 | 1014.8 |
| 20260901210732 | 33 | 225 | 0.0 | 4.8 | 0.00 | 0.00 | 0.00 | 61 | 1014.7 |
| 20260901205734 | 33 | 243 | 0.0 | 4.8 | 0.00 | 0.00 | 0.00 | 61 | 1014.8 |
| 20260901205227 | 33 | 222 | 1.6 | 4.8 | 0.00 | 0.00 | 0.00 | 61 | 1014.8 |
| 20260901204722 | 33 | 272 | 0.0 | 3.2 | 0.00 | 0.00 | 0.00 | 58 | 1014.9 |
| 20260901204215 | 33 | 210 | 0.0 | 3.2 | 0.00 | 0.00 | 0.00 | 58 | 1014.9 |
| 20260901203709 | 34 | 273 | 0.0 | 6.4 | 0.00 | 0.00 | 0.00 | 56 | 1014.9 |
| 20260901203203 | 35 | 171 | 1.6 | 6.4 | 0.00 | 0.00 | 0.00 | 56 | 1015.0 |
| 20260901202657 | 34 | 316 | 1.6 | 6.4 | 0.00 | 0.00 | 0.00 | 54 | 1015.0 |
| 20260901202157 | 34 | 229 | 1.6 | 6.4 | 0.00 | 0.00 | 0.00 | 53 | 1015.1 |
| 20260901201646 | 35 | 36 | 1.6 | 8.0 | 0.00 | 0.00 | 0.00 | 54 | 1015.1 |
| 20260901201140 | 35 | 147 | 3.2 | 8.0 | 0.00 | 0.00 | 0.00 | 52 | 1015.1 |
| 20260901200634 | 35 | 296 | 3.2 | 16.1 | 0.00 | 0.00 | 0.00 | 54 | 1015.3 |
| 20260901200127 | 35 | 11 | 3.2 | 16.1 | 0.00 | 0.00 | 0.00 | 50 | 1015.3 |
| 20260901195623 | 36 | 302 | 1.6 | 9.7 | 0.00 | 0.00 | 0.00 | 48 | 1015.4 |
| 20260901195115 | 36 | 48 | 1.6 | 11.3 | 0.00 | 0.00 | 0.00 | 48 | 1015.4 |
| 20260901194610 | 35 | 298 | 3.2 | 12.9 | 0.00 | 0.00 | 0.00 | 50 | 1015.4 |
| 20260901194103 | 35 | 49 | 1.6 | 12.9 | 0.00 | 0.00 | 0.00 | 47 | 1015.5 |
| 20260901193822 | 36 | 310 | 1.6 | 12.9 | 0.00 | 0.00 | 0.00 | 49 | 1015.4 |
| 20260901193052 | 36 | 269 | 3.2 | 12.9 | 0.00 | 0.00 | 0.00 | 48 | 1015.5 |
| 20260901192546 | 36 | 265 | 1.6 | 9.7 | 0.00 | 0.00 | 0.00 | 47 | 1015.7 |
| 20260901192039 | 36 | 156 | 1.6 | 9.7 | 0.00 | 0.00 | 0.00 | 48 | 1015.8 |
| 20260901191533 | 36 | 224 | 3.2 | 12.9 | 0.00 | 0.00 | 0.00 | 49 | 1015.9 |
| 20260901191027 | 35 | 27 | 3.2 | 11.3 | 0.00 | 0.00 | 0.00 | 52 | 1016.0 |
| 20260901190521 | 35 | 119 | 3.2 | 11.3 | 0.00 | 0.00 | 0.00 | 49 | 1015.9 |
| 20260901190016 | 35 | 46 | 1.6 | 12.9 | 0.00 | 0.00 | 0.00 | 51 | 1016.1 |
| 20260901185510 | 35 | 74 | 3.2 | 12.9 | 0.00 | 0.00 | 0.00 | 50 | 1016.1 |
| 20260901185003 | 35 | 100 | 3.2 | 9.7 | 0.00 | 0.00 | 0.00 | 50 | 1016.1 |
| 20260901184457 | 36 | 78 | 1.6 | 9.7 | 0.00 | 0.00 | 0.00 | 50 | 1016.1 |
| 20260901183951 | 35 | 55 | 3.2 | 12.9 | 0.00 | 0.00 | 0.00 | 50 | 1016.1 |
| 20260901183708 | 35 | 5 | 3.2 | 12.9 | 0.00 | 0.00 | 0.00 | 49 | 1016.1 |
| 20260901182939 | 35 | 38 | 3.2 | 6.4 | 0.00 | 0.00 | 0.00 | 50 | 1016.1 |
| 20260901182432 | 35 | 100 | 1.6 | 6.4 | 0.00 | 0.00 | 0.00 | 48 | 1016.0 |
| 20260901181927 | 36 | 273 | 1.6 | 6.4 | 0.00 | 0.00 | 0.00 | 49 | 1016.0 |
| 20260901181422 | 35 | 332 | 1.6 | 6.4 | 0.00 | 0.00 | 0.00 | 52 | 1016.0 |
| 20260901180915 | 35 | 322 | 1.6 | 6.4 | 0.00 | 0.00 | 0.00 | 51 | 1016.1 |
| 20260901180409 | 35 | 123 | 3.2 | 12.9 | 0.00 | 0.00 | 0.00 | 50 | 1016.0 |
| 20260901175904 | 35 | 340 | 3.2 | 12.9 | 0.00 | 0.00 | 0.00 | 53 | 1016.1 |
| 20260901175403 | 35 | 66 | 1.6 | 11.3 | 0.00 | 0.00 | 0.00 | 54 | 1016.2 |
| 20260901174904 | 35 | 221 | 1.6 | 11.3 | 0.00 | 0.00 | 0.00 | 54 | 1016.1 |
| 20260901174847 | 35 | 198 | 1.6 | 8.0 | 0.00 | 0.00 | 0.00 | 54 | 1016.0 |
| 20260901173904 | 34 | 355 | 3.2 | 8.0 | 0.00 | 0.00 | 0.00 | 54 | 1016.1 |
| 20260901173402 | 34 | 212 | 3.2 | 8.0 | 0.00 | 0.00 | 0.00 | 57 | 1016.1 |
| 20260901172904 | 34 | 217 | 3.2 | 6.4 | 0.00 | 0.00 | 0.00 | 59 | 1016.2 |
| 20260901172403 | 33 | 74 | 1.6 | 4.8 | 0.00 | 0.00 | 0.00 | 58 | 1016.1 |
| 20260901171904 | 34 | 110 | 1.6 | 6.4 | 0.00 | 0.00 | 0.00 | 56 | 1016.3 |
| 20260901171403 | 34 | 203 | 1.6 | 6.4 | 0.00 | 0.00 | 0.00 | 55 | 1016.4 |
| 20260901170904 | 33 | 215 | 1.6 | 6.4 | 0.00 | 0.00 | 0.00 | 57 | 1016.4 |
| 20260901170405 | 34 | 243 | 1.6 | 8.0 | 0.00 | 0.00 | 0.00 | 60 | 1016.4 |
| 20260901165906 | 33 | 243 | 1.6 | 8.0 | 0.00 | 0.00 | 0.00 | 57 | 1016.5 |
| 20260901165402 | 33 | 227 | 1.6 | 11.3 | 0.00 | 0.00 | 0.00 | 60 | 1016.4 |
| 20260901164901 | 32 | 215 | 1.6 | 11.3 | 0.00 | 0.00 | 0.00 | 60 | 1016.4 |
| 20260901164404 | 32 | 261 | 1.6 | 4.8 | 0.00 | 0.00 | 0.00 | 61 | 1016.5 |
| 20260901163903 | 32 | 244 | 3.2 | 6.4 | 0.00 | 0.00 | 0.00 | 60 | 1016.5 |
| 20260901163357 | 33 | 247 | 3.2 | 8.0 | 0.00 | 0.00 | 0.00 | 60 | 1016.5 |
| 20260901162852 | 32 | 275 | 3.2 | 11.3 | 0.00 | 0.00 | 0.00 | 61 | 1016.5 |
| 20260901162345 | 32 | 250 | 3.2 | 11.3 | 0.00 | 0.00 | 0.00 | 60 | 1016.6 |
| 20260901161839 | 32 | 26 | 1.6 | 9.7 | 0.00 | 0.00 | 0.00 | 61 | 1016.8 |
| 20260901161559 | 32 | 123 | 1.6 | 4.8 | 0.00 | 0.00 | 0.00 | 61 | 1016.9 |
| 20260901160828 | 32 | 246 | 3.2 | 9.7 | 0.00 | 0.00 | 0.00 | 61 | 1017.0 |
| 20260901160322 | 32 | 41 | 3.2 | 9.7 | 0.00 | 0.00 | 0.00 | 63 | 1017.0 |
| 20260901155816 | 32 | 225 | 1.6 | 8.0 | 0.00 | 0.00 | 0.00 | 61 | 1016.9 |
| 20260901155309 | 32 | 210 | 1.6 | 8.0 | 0.00 | 0.00 | 0.00 | 63 | 1017.0 |
| 20260901154804 | 31 | 24 | 3.2 | 8.0 | 0.00 | 0.00 | 0.00 | 62 | 1016.9 |
| 20260901154527 | 31 | 94 | 1.6 | 8.0 | 0.00 | 0.00 | 0.00 | 68 | 1016.9 |
| 20260901154014 | 31 | 318 | 1.6 | 6.4 | 0.00 | 0.00 | 0.00 | 67 | 1017.0 |
| 20260901153246 | 31 | 240 | 1.6 | 6.4 | 0.00 | 0.00 | 0.00 | 68 | 1017.0 |
| 20260901152739 | 30 | 254 | 1.6 | 6.4 | 0.00 | 0.00 | 0.00 | 69 | 1017.1 |
| 20260901152234 | 30 | 251 | 1.6 | 6.4 | 0.00 | 0.00 | 0.00 | 69 | 1017.2 |
| 20260901151727 | 30 | 281 | 1.6 | 9.7 | 0.00 | 0.00 | 0.00 | 69 | 1017.3 |
| 20260901151227 | 30 | 38 | 0.0 | 9.7 | 0.00 | 0.00 | 0.00 | 67 | 1017.3 |
| 20260901150946 | 29 | 203 | 0.0 | 3.2 | 0.00 | 0.00 | 0.00 | 72 | 1017.3 |
| 20260901150225 | 29 | 259 | 1.6 | 4.8 | 0.00 | 0.00 | 0.00 | 72 | 1017.4 |
| 20260901145726 | 29 | 237 | 1.6 | 4.8 | 0.00 | 0.00 | 0.00 | 71 | 1017.4 |
| 20260901145224 | 29 | 18 | 1.6 | 4.8 | 0.00 | 0.00 | 0.00 | 71 | 1017.4 |
| 20260901144943 | 28 | 225 | 0.0 | 4.8 | 0.00 | 0.00 | 0.00 | 73 | 1017.4 |
| 20260901144223 | 28 | 324 | 0.0 | 1.6 | 0.00 | 0.00 | 0.00 | 78 | 1017.5 |
| 20260901143724 | 28 | 215 | 0.0 | 0.0 | 0.00 | 0.00 | 0.00 | 79 | 1017.5 |
| 20260901143222 | 28 | 209 | 0.0 | 0.0 | 0.00 | 0.00 | 0.00 | 79 | 1017.5 |
| 20260901142724 | 28 | 201 | 0.0 | 4.8 | 0.00 | 0.00 | 0.00 | 79 | 1017.5 |
| 20260901142223 | 28 | 281 | 0.0 | 4.8 | 0.00 | 0.00 | 0.00 | 77 | 1017.5 |
| 20260901141723 | 28 | 229 | 0.0 | 4.8 | 0.00 | 0.00 | 0.00 | 79 | 1017.5 |
| 20260901141223 | 27 | 244 | 0.0 | 4.8 | 0.00 | 0.00 | 0.00 | 79 | 1017.5 |
| 20260901140723 | 27 | 5 | 0.0 | 3.2 | 0.00 | 0.00 | 0.00 | 81 | 1017.5 |
| 20260901140223 | 26 | 248 | 0.0 | 3.2 | 0.00 | 0.00 | 0.00 | 83 | 1017.4 |
| 20260901135724 | 26 | 279 | 0.0 | 3.2 | 0.00 | 0.00 | 0.00 | 84 | 1017.4 |
| 20260901135713 | 26 | 251 | 1.6 | 6.4 | 0.00 | 0.00 | 0.00 | 85 | 1017.4 |
| 20260901134723 | 25 | 283 | 0.0 | 6.4 | 0.00 | 0.00 | 0.00 | 88 | 1017.5 |
| 20260901134223 | 25 | 225 | 0.0 | 3.2 | 0.00 | 0.00 | 0.00 | 88 | 1017.5 |
| 20260901133722 | 25 | 220 | 1.6 | 6.4 | 0.00 | 0.00 | 0.00 | 88 | 1017.5 |
| 20260901133222 | 25 | 207 | 1.6 | 6.4 | 0.00 | 0.00 | 0.00 | 89 | 1017.6 |
| 20260901132722 | 25 | 273 | 0.0 | 4.8 | 0.00 | 0.00 | 0.00 | 91 | 1017.6 |
| 20260901132224 | 24 | 347 | 0.0 | 3.2 | 0.00 | 0.00 | 0.00 | 93 | 1017.6 |
| 20260901131723 | 23 | 246 | 0.0 | 3.2 | 0.00 | 0.00 | 0.00 | 93 | 1017.6 |
| 20260901131223 | 23 | 246 | 0.0 | 4.8 | 0.00 | 0.00 | 0.00 | 94 | 1017.6 |
| 20260901130722 | 23 | 266 | 1.6 | 4.8 | 0.00 | 0.00 | 0.00 | 94 | 1017.7 |
| 20260901130221 | 23 | 284 | 0.0 | 4.8 | 0.00 | 0.00 | 0.00 | 94 | 1017.8 |
| 20260901125723 | 23 | 240 | 0.0 | 0.0 | 0.00 | 0.00 | 0.00 | 94 | 1017.9 |
| 20260901125214 | 23 | 252 | 0.0 | 0.0 | 0.00 | 0.00 | 0.00 | 94 | 1017.9 |
| 20260901124709 | 23 | 252 | 0.0 | 0.0 | 0.00 | 0.00 | 0.00 | 94 | 1017.9 |
| 20260901124203 | 23 | 252 | 0.0 | 0.0 | 0.00 | 0.00 | 0.00 | 94 | 1017.8 |
| 20260901123656 | 23 | 252 | 0.0 | 0.0 | 0.00 | 0.00 | 0.00 | 94 | 1017.8 |
| 20260901123419 | 23 | 252 | 0.0 | 1.6 | 0.00 | 0.00 | 0.00 | 94 | 1017.8 |
| 20260901122916 | 23 | 252 | 0.0 | 3.2 | 0.00 | 0.00 | 0.00 | 94 | 1017.7 |
| 20260901122153 | 23 | 252 | 0.0 | 3.2 | 0.00 | 0.00 | 0.00 | 94 | 1017.7 |
| 20260901121652 | 23 | 241 | 0.0 | 1.6 | 0.00 | 0.00 | 0.00 | 94 | 1017.6 |
| 20260901121150 | 23 | 241 | 0.0 | 1.6 | 0.00 | 0.00 | 0.00 | 94 | 1017.6 |
| 20260901120650 | 22 | 241 | 0.0 | 1.6 | 0.00 | 0.00 | 0.00 | 94 | 1017.7 |
| 20260901120151 | 22 | 241 | 0.0 | 1.6 | 0.00 | 0.00 | 0.00 | 94 | 1017.6 |
| 20260901115649 | 22 | 241 | 0.0 | 1.6 | 0.00 | 0.00 | 0.00 | 94 | 1017.6 |
| 20260901115149 | 22 | 241 | 0.0 | 3.2 | 0.00 | 0.00 | 0.00 | 94 | 1017.5 |
| 20260901114650 | 22 | 241 | 0.0 | 3.2 | 0.00 | 0.00 | 0.00 | 94 | 1017.5 |
| 20260901114146 | 22 | 241 | 0.0 | 1.6 | 0.00 | 0.00 | 0.00 | 94 | 1017.5 |
| 20260901113647 | 22 | 241 | 0.0 | 1.6 | 0.00 | 0.00 | 0.00 | 94 | 1017.5 |
| 20260901113623 | 22 | 241 | 0.0 | 1.6 | 0.00 | 0.00 | 0.00 | 94 | 1017.4 |